{"data":{"norad_id":57166,"intl_designator":"2023-091A","name":"METEOR-M2 3","alt_names":[],"object_type":"PAYLOAD","status":"ACTIVE","operator":null,"country":"CIS","launch_date":"2023-06-27","launch_site_code":"VOSTO","launch_vehicle":null,"mission":null,"orbit_class":"UNKNOWN","rcs_meters":null,"size_class":null,"mass_kg":null,"dimensions":null,"purposes":["earth_obs"],"wikipedia_slug":null,"has_3d_model":false,"image_url":null,"decayed_at":null,"tle_current":{"epoch":"2026-05-25T04:37:50.536992Z","epoch_age_seconds":54778,"freshness":"FRESH","line1":"1 57166U 23091A   26145.19294603 -.00000014  00000+0  12556-4 0  9990","line2":"2 57166  98.6095 200.6399 0003065 224.6326 135.4607 14.24044498151241","mean_motion":14.24044498,"eccentricity":0.0003065,"inclination_deg":98.6095,"raan_deg":200.6399,"arg_perigee_deg":224.6326,"mean_anomaly_deg":135.4607,"bstar":1.2556e-5,"rev_number":15124,"period_min":101.12043563403,"perigee_km":809.50331925204,"apogee_km":813.91069362798,"semimajor_km":7189.84400644,"source":"CELESTRAK","updated_at":"2026-05-25T13:38:13.041201Z"}}}